Dewpoint
55 55 55 55 56 56 56 56 57 57 57 57 57 58 58 58 58 58 58 58 58 58 58 58 58 57 58 58 59 59 58 55 52 50 48 40 47 59 69 69 68 66 69 53 50 42 36 41 45 50 52 54 50 50 52 54 48 42 45 42 41 40 39 39 40 41 43 46 52 53 56 57 56 58 60 61 60 60 60 61 62 64 63 64 66 66 68 68
55 55 55 55 55 56 56 56 57 57 57 57 57 57 57 58 58 58 58 58 58 58 58 58 58 58 58 58 59 60 58 55 48 48 47 47 62 62 65 69 73 72 64 47 44 35 32 32 32 47 45 44 51 46 50 48 45 42 41 44 41 39 39 41 39 40 44 47 53 53 55 56 56 59 59 57 58 59 60 60 62 63 65 66 66 67 67 68
54 54 55 54 55 55 56 56 56 57 57 56 57 57 57 57 58 58 58 58 57 58 58 57 58 58 58 58 59 59 56 51 47 29 24 63 65 64 66 67 71 71 44 47 43 35 27 29 39 40 41 36 37 42 46 44 45 43 40 40 41 41 39 41 38 39 46 48 51 54 55 54 56 57 58 56 57 59 59 60 62 63 64 65 66 67 67 68
54 54 54 54 54 55 55 56 56 56 56 56 57 57 57 57 57 57 57 57 57 57 57 57 58 58 58 59 60 58 54 50 14 14 19 65 71 71 66 68 70 69 46 46 45 36 30 34 33 32 34 33 33 46 39 40 44 41 41 40 40 41 39 39 39 41 44 50 51 53 54 54 56 56 56 57 57 57 58 60 60 62 64 65 66 67 67 67
54 54 54 54 54 55 55 55 56 56 56 56 56 57 56 57 57 57 57 57 57 57 57 57 58 58 59 59 59 55 51 7 1 11 19 71 72 72 71 69 71 56 43 45 40 37 35 32 33 35 31 30 35 37 40 42 42 39 42 42 40 39 40 40 41 43 46 50 53 53 53 54 56 55 56 57 55 56 57 59 61 63 64 65 66 67 67 67
54 53 53 54 54 54 55 55 55 55 56 56 56 56 56 57 57 57 57 57 57 57 57 57 58 58 59 59 57 55 24 12 11 22 76 71 70 70 72 71 72 51 43 39 38 35 30 30 25 28 31 31 32 31 32 39 42 36 36 37 41 39 40 40 42 44 48 50 52 52 53 55 54 54 56 57 57 56 59 60 62 64 65 65 66 67 67 67
53 53 53 53 54 54 54 54 55 55 55 55 56 56 57 56 56 56 56 56 56 56 57 57 58 58 59 58 52 48 28 17 28 27 63 69 73 72 72 73 71 47 43 38 34 33 31 29 21 31 32 33 33 31 31 32 35 35 29 31 35 39 39 42 42 46 48 50 50 52 55 54 54 53 56 56 57 58 60 61 63 64 65 66 66 66 66 66
53 53 53 53 54 54 54 54 54 54 55 55 56 56 56 56 56 56 56 56 56 57 57 57 58 58 59 55 36 24 26 27 31 29 64 73 69 73 72 65 54 47 41 38 33 30 30 25 18 33 32 29 33 29 31 29 31 32 29 29 35 36 39 42 43 46 47 48 50 53 53 53 54 54 56 56 58 59 60 62 63 64 65 65 65 65 66 66
53 53 53 53 53 53 54 54 54 55 54 55 55 55 56 56 56 56 56 56 56 56 57 57 58 58 59 54 29 28 28 28 27 38 64 64 61 62 59 54 51 44 41 39 32 30 27 27 29 30 23 31 31 29 30 26 23 27 24 34 40 39 41 42 44 45 46 48 52 53 53 54 56 56 56 58 58 60 61 62 63 64 64 65 65 65 65 66
53 52 52 53 53 53 53 54 54 55 55 55 55 55 55 56 55 56 56 56 56 57 57 57 58 58 55 45 25 27 30 28 41 58 63 58 55 55 46 52 46 40 37 36 31 29 21 23 28 33 32 30 30 28 29 25 24 26 27 41 43 43 41 43 43 45 47 50 52 52 53 54 56 55 54 58 59 60 61 61 63 63 64 64 64 64 65 65
52 52 52 53 53 53 53 53 54 55 55 55 55 55 55 55 55 55 55 56 56 57 57 58 58 57 51 49 29 27 33 46 50 55 55 53 51 49 43 48 42 36 37 34 31 26 22 29 34 31 31 27 28 28 27 26 26 28 43 46 45 45 43 45 46 49 51 51 52 52 53 56 56 55 54 57 59 60 60 61 62 62 63 63 64 64 65 65
52 52 52 52 52 53 53 53 53 54 55 55 55 55 55 55 55 55 55 56 57 57 57 58 59 54 53 37 30 29 32 40 35 30 47 43 39 48 41 49 42 34 35 32 33 31 31 32 29 30 29 28 32 28 26 26 29 43 45 44 46 45 46 48 48 50 50 51 53 54 53 53 54 53 57 58 59 60 60 60 61 62 62 63 63 63 64 65
52 52 52 52 52 52 53 53 53 54 54 54 54 54 55 54 54 55 56 57 57 57 58 59 59 56 49 34 35 34 34 34 35 37 36 42 45 44 39 45 41 35 31 31 32 32 33 32 26 20 29 25 27 23 27 26 27 43 44 45 45 45 45 48 51 51 50 52 53 51 47 50 52 54 58 59 59 60 60 60 61 61 62 62 63 63 64 64
52 52 52 52 52 53 53 53 54 54 54 54 54 54 54 53 54 55 57 57 58 58 59 60 57 56 41 34 36 37 37 37 38 41 39 40 40 35 36 38 39 34 34 26 26 28 34 29 24 22 29 21 21 25 23 26 36 37 43 43 44 43 43 47 51 51 50 53 53 48 44 47 51 55 58 59 60 59 59 60 60 61 61 62 62 63 63 64
51 52 52 52 52 52 53 53 53 53 53 53 54 53 53 53 55 57 59 58 58 59 60 60 56 52 42 40 42 44 62 57 54 52 42 33 32 30 31 33 35 34 31 29 28 31 28 28 25 23 19 30 24 21 21 24 28 43 41 41 41 41 43 46 47 50 48 52 52 45 45 46 50 56 59 59 59 60 59 60 60 61 61 61 62 62 63 64
52 52 52 52 52 52 53 53 53 53 53 53 53 53 53 54 56 59 57 58 59 60 59 56 54 53 44 37 39 51 47 41 38 46 47 34 31 29 30 32 30 30 30 30 31 31 27 25 21 21 23 19 18 18 24 20 23 35 40 40 42 38 43 46 46 46 50 51 51 45 41 51 52 57 59 59 59 59 59 60 60 60 61 61 62 62 63 63
52 52 52 52 52 52 53 53 53 53 53 53 52 53 53 55 58 59 59 60 60 59 58 54 54 56 38 38 42 38 36 42 46 40 44 38 32 29 26 27 28 27 28 25 28 29 25 24 25 23 21 15 15 17 18 23 27 38 34 40 42 40 43 44 45 44 45 50 49 48 48 51 53 58 59 59 59 59 59 60 60 60 61 61 62 62 62 63
52 52 51 52 51 53 52 53 53 53 52 52 52 52 51 55 57 60 60 59 58 58 56 57 55 40 32 36 34 34 39 35 36 37 36 40 34 29 27 26 23 24 24 22 21 21 22 20 17 15 20 21 19 21 19 19 24 33 34 36 37 36 42 42 42 44 44 47 48 47 48 52 55 58 58 59 59 59 59 60 60 60 61 61 62 62 62 62
51 52 52 52 52 52 52 52 52 52 52 52 52 52 54 57 56 54 54 56 42 34 26 44 40 31 22 28 34 34 35 36 37 38 35 37 40 30 24 23 20 21 20 19 17 19 20 17 20 19 14 20 17 17 15 17 24 33 32 35 35 34 39 41 42 45 45 46 46 46 45 50 54 57 58 59 59 59 59 60 60 60 60 61 61 61 62 62
51 51 52 51 52 52 52 52 52 52 51 50 47 46 36 28 27 24 43 54 40 27 23 24 41 37 36 34 32 34 37 40 36 36 37 39 32 31 29 18 17 16 15 12 19 18 17 14 15 13 14 16 21 18 17 19 25 28 28 30 32 34 38 42 42 41 45 46 46 45 47 51 54 56 57 58 59 59 58 59 59 59 60 60 60 61 61 61
51 51 51 52 52 52 52 52 52 51 51 49 47 28 19 25 25 24 27 26 27 31 32 31 29 32 30 32 34 35 33 34 35 35 38 46 30 32 31 19 14 14 14 13 13 22 15 14 14 14 13 15 20 22 22 27 29 28 28 27 27 29 32 38 38 44 45 45 44 47 48 50 53 55 57 57 58 57 57 57 58 58 59 59 59 59 60 61
51 52 52 52 52 52 52 52 51 51 51 47 37 28 25 29 29 28 31 22 27 29 31 31 32 33 33 32 32 36 37 35 32 32 35 37 31 31 29 22 12 11 14 16 17 17 16 11 10 15 15 16 22 25 26 26 26 25 25 26 27 30 30 32 35 43 44 44 43 47 47 49 53 54 56 56 56 57 57 57 57 57 58 58 58 58 59 59
51 51 52 52 52 52 52 51 50 50 46 38 33 35 36 32 31 33 30 29 27 29 29 29 30 31 31 33 36 36 34 34 29 29 35 36 30 31 22 21 14 11 14 15 12 17 15 14 14 15 16 16 22 24 24 26 25 23 28 29 27 31 29 28 33 43 43 42 42 48 46 49 51 54 54 55 56 56 56 56 56 57 57 57 58 58 58 58
51 51 51 51 52 52 51 50 50 46 42 40 38 36 38 34 31 31 34 28 21 24 29 29 29 29 29 28 34 36 34 34 34 30 35 28 27 29 21 21 15 10 9 11 12 13 14 15 17 16 16 16 16 26 24 25 25 28 26 27 28 31 30 29 32 42 43 45 47 47 46 46 49 51 52 54 55 55 55 55 56 57 57 58 58 58 58 58
51 51 51 51 51 51 50 50 43 43 44 36 39 41 42 34 37 32 32 31 29 28 34 32 32 31 29 39 38 35 35 38 35 34 36 30 25 23 23 21 17 14 10 11 12 12 12 14 18 16 18 17 16 24 24 24 25 25 25 25 26 30 31 37 39 40 40 40 44 44 39 41 47 50 51 52 53 54 55 55 55 56 57 58 57 57 58 58
50 51 52 51 52 51 50 36 40 46 40 28 28 39 36 34 34 36 35 31 26 27 31 29 33 28 35 35 38 37 36 33 37 36 32 31 30 28 25 19 21 19 12 12 10 15 11 15 19 16 16 18 15 16 23 22 23 23 24 25 25 27 32 35 39 39 38 37 40 44 37 36 42 47 49 51 52 52 54 54 54 55 57 57 58 58 57 57
50 51 51 51 51 50 43 36 45 44 21 17 40 39 36 35 41 36 31 26 20 28 27 32 30 30 37 35 35 31 22 21 34 38 37 43 27 27 24 22 19 21 15 18 19 11 17 13 15 20 19 16 16 15 19 22 23 23 26 24 24 28 32 35 38 38 39 44 44 43 41 37 37 42 48 50 50 51 52 53 53 54 55 57 58 58 58 58
51 51 51 51 51 51 47 47 47 43 33 23 41 39 37 38 41 37 31 22 20 26 35 35 31 34 34 33 32 28 25 27 28 30 36 36 26 25 27 21 17 16 17 16 14 15 14 13 14 15 18 20 19 20 24 24 21 26 27 23 22 25 30 34 37 36 38 38 39 43 44 38 38 41 48 49 48 49 50 51 52 53 54 56 58 58 58 58
51 51 51 51 51 50 50 48 47 42 41 42 41 40 39 40 36 31 26 17 22 31 28 27 30 29 29 34 32 29 27 28 25 28 32 29 27 22 23 21 17 16 16 14 16 14 17 12 14 14 15 14 23 24 25 24 20 23 25 23 22 21 26 34 35 35 38 36 36 42 40 37 35 41 45 48 48 48 49 50 51 52 53 54 56 58 59 59
51 51 51 50 50 48 46 49 46 45 42 43 43 42 41 38 31 28 25 18 29 18 28 27 24 23 29 30 30 31 27 25 28 25 28 26 26 23 24 20 16 16 16 16 16 14 14 34 26 15 13 15 16 20 25 24 23 22 20 19 23 31 33 41 38 38 36 32 33 40 41 37 33 39 44 46 47 48 48 49 50 51 52 53 55 57 58 59
50 50 50 50 47 47 47 40 39 43 44 44 42 39 38 34 30 25 21 21 25 21 27 25 23 26 23 23 22 26 26 25 25 23 25 25 22 22 21 20 15 16 16 16 11 14 13 14 17 19 31 18 15 18 24 24 24 21 20 21 20 25 29 33 32 36 31 30 34 35 41 39 33 36 42 46 47 48 47 47 48 49 51 52 53 55 57 59
49 49 50 49 49 49 44 29 31 43 43 40 34 31 21 20 23 21 20 29 19 21 22 22 25 23 23 25 24 26 24 25 26 23 21 22 20 19 19 20 16 16 15 15 14 17 10 11 15 13 40 15 16 13 16 23 22 21 24 25 21 24 26 20 28 28 28 27 31 33 40 39 38 36 40 44 45 46 48 47 47 48 50 51 52 54 56 58
49 49 49 50 50 49 48 42 41 43 44 39 37 27 22 21 17 22 20 24 17 26 25 26 24 22 22 17 17 21 26 22 24 24 21 21 20 20 18 19 17 16 16 25 12 11 12 13 11 13 13 26 16 11 19 18 21 20 20 24 21 18 17 17 25 27 26 28 29 29 40 37 39 39 40 41 43 45 46 47 47 47 49 51 52 53 55 57
48 49 48 48 48 48 48 49 48 47 43 43 39 25 25 21 20 44 16 21 17 23 24 24 22 21 21 17 17 20 21 24 23 23 21 22 19 19 19 18 17 18 18 26 12 9 11 10 9 10 11 18 16 14 16 20 20 20 21 18 22 22 20 17 22 21 23 24 30 36 37 37 34 37 40 39 40 43 45 46 47 50 52 51 52 53 55 57
48 48 47 46 46 47 48 48 48 49 43 37 24 19 13 13 23 23 27 22 24 25 21 24 21 22 19 19 21 23 24 22 25 19 20 18 18 18 18 17 18 17 19 14 19 19 9 11 15 14 12 15 12 18 18 20 21 18 20 22 22 19 30 17 23 25 25 25 26 35 36 37 35 38 39 48 42 42 45 45 47 47 50 52 52 53 54 56
47 45 46 45 47 47 47 48 47 46 37 18 15 17 8 12 9 23 18 29 27 25 24 20 23 21 20 20 26 20 24 24 23 23 22 19 18 18 19 18 16 16 15 15 21 15 18 12 15 21 18 13 12 21 19 16 14 20 20 18 19 23 19 33 38 33 28 24 21 35 32 30 32 35 35 42 44 40 41 43 44 45 49 52 52 53 54 56
46 46 41 43 45 47 47 47 47 45 34 7 8 4 10 13 18 23 43 23 21 24 22 18 21 19 20 19 21 21 19 20 22 23 24 21 18 18 19 18 18 16 16 16 20 19 13 17 18 13 13 14 13 19 17 17 18 17 17 18 26 29 27 26 18 26 24 20 23 29 27 27 30 30 42 38 37 37 40 41 43 46 51 51 52 53 55 56
46 45 46 47 47 47 47 47 45 42 19 5 2 36 25 8 14 18 23 17 19 19 17 22 20 22 20 20 18 20 20 16 16 22 23 21 19 20 18 19 18 16 16 16 15 20 16 13 15 15 12 15 18 15 13 15 20 14 17 22 16 21 19 29 26 20 20 20 21 24 28 31 29 30 36 35 36 35 37 41 43 45 49 49 51 52 54 56
44 43 32 42 47 47 46 46 43 33 9 3 1 15 31 11 16 20 22 21 19 18 14 18 16 20 21 19 20 22 20 16 19 19 21 22 20 23 17 18 18 16 16 16 15 23 18 13 19 20 14 17 15 12 9 9 15 19 19 18 28 23 28 24 23 25 23 19 22 20 25 24 32 27 29 30 35 36 35 39 42 44 46 48 50 51 54 55
43 31 24 47 47 47 46 44 40 34 5 -3 4 4 17 21 17 20 17 16 13 13 15 19 19 15 21 17 21 18 23 19 17 16 18 21 19 21 18 19 19 18 16 16 15 22 17 19 14 18 19 16 14 15 9 9 13 15 15 17 20 26 24 23 29 24 23 25 22 21 20 27 29 33 31 29 34 38 38 39 42 44 45 47 48 51 54 55
44 33 31 46 46 46 46 45 35 21 9 17 15 6 16 11 17 20 20 23 17 20 16 20 22 20 21 18 16 21 20 20 20 17 18 17 19 16 20 17 18 16 17 15 14 17 19 19 13 20 22 16 14 17 13 12 13 13 13 13 15 17 21 17 17 23 26 23 20 18 17 26 28 40 35 31 33 38 41 40 41 44 44 46 49 51 54 55
41 15 16 46 46 46 38 33 33 35 27 28 5 20 14 23 20 15 12 15 15 11 18 16 14 13 14 14 14 25 20 20 18 18 19 16 20 16 19 20 18 17 13 16 14 15 17 28 18 14 14 12 15 16 22 15 14 13 13 12 14 15 20 20 17 22 23 25 29 26 20 22 30 40 38 35 40 42 45 45 43 44 46 47 49 51 53 55
39 28 26 35 42 41 36 33 42 42 34 30 34 33 30 26 27 25 21 21 17 16 16 16 16 16 16 14 17 17 18 19 20 18 18 19 19 18 18 18 18 18 15 16 15 14 45 19 20 19 25 23 20 20 23 20 15 14 13 16 14 14 15 15 19 25 21 27 24 23 21 25 35 47 47 45 46 45 48 47 46 46 48 49 49 51 53 55
41 40 41 44 46 43 33 32 35 34 34 34 33 33 34 31 29 30 23 22 19 18 14 13 14 15 13 17 16 17 21 21 21 18 20 25 19 22 20 20 22 19 15 18 14 34 19 27 19 16 15 16 17 20 16 23 17 16 16 15 15 16 17 23 27 30 20 25 24 22 19 25 36 50 49 49 48 46 45 47 48 47 49 49 50 52 53 55
42 43 42 43 49 41 33 32 31 31 34 32 32 31 31 33 34 34 33 31 29 21 23 22 17 18 16 16 18 20 22 19 23 21 20 25 24 31 33 35 30 26 20 24 45 24 17 26 21 14 16 14 14 13 13 14 17 20 24 16 17 13 19 23 20 24 19 30 30 25 25 29 34 39 40 42 45 45 46 47 48 49 49 49 50 51 53 54
41 34 36 39 38 38 40 38 33 33 35 35 35 34 33 31 33 33 32 30 30 28 24 24 23 20 18 18 19 20 21 25 22 28 33 27 31 37 38 37 37 35 39 46 52 23 24 32 23 19 16 15 17 24 28 35 25 15 15 16 14 14 16 18 29 25 18 28 26 29 31 29 30 31 35 37 42 42 43 46 48 48 49 50 51 52 52 53
42 39 40 34 38 35 34 33 34 34 34 36 33 36 34 33 34 33 34 33 34 31 28 25 25 26 25 21 20 19 22 25 28 27 26 28 34 37 39 38 37 48 49 46 44 29 33 24 25 27 23 19 18 22 23 25 15 15 14 14 14 14 17 18 20 19 30 27 24 34 36 29 29 31 34 37 39 42 45 46 48 49 49 49 50 52 57 54
37 42 40 41 36 32 33 32 37 35 37 37 37 38 34 32 34 35 32 32 29 29 30 29 25 26 25 23 28 22 27 27 30 27 33 33 41 36 35 36 34 48 44 37 39 24 28 19 21 23 20 19 16 16 23 24 16 16 14 13 14 15 17 17 24 22 30 22 20 30 36 32 30 30 31 35 37 39 42 44 46 48 48 52 52 51 52 52
42 42 40 42 37 38 37 37 39 39 38 36 39 40 38 35 34 33 32 28 28 31 30 30 32 28 24 26 27 25 35 30 32 39 35 40 38 38 37 35 36 35 35 35 37 36 28 21 25 19 18 17 17 17 21 22 20 19 16 15 14 14 16 16 18 24 25 29 27 29 36 31 29 30 31 34 38 38 42 47 49 49 48 50 50 50 50 51
37 39 37 41 41 40 39 38 37 36 33 36 42 41 37 37 35 34 34 31 31 30 33 38 39 40 41 41 40 30 31 31 33 32 43 37 36 40 38 36 34 36 35 35 34 37 28 25 36 20 21 18 16 17 17 18 19 17 17 17 16 14 14 16 16 23 33 27 31 33 35 34 35 36 33 41 45 45 45 44 44 47 48 49 49 49 50 51
41 41 42 40 38 38 40 39 36 35 32 34 38 38 33 35 34 34 34 34 30 33 38 40 39 39 40 42 41 32 40 42 41 40 41 40 29 38 35 37 35 36 36 36 36 38 30 31 32 28 23 19 19 17 16 16 16 15 15 15 15 15 17 19 22 29 29 30 35 35 33 32 33 40 46 43 42 41 41 43 45 47 48 50 49 49 50 51
41 42 42 42 37 38 38 37 34 34 31 38 34 32 31 32 32 34 33 33 33 32 35 38 35 38 40 41 41 41 37 37 36 36 38 39 40 38 37 36 35 39 37 36 41 36 34 30 30 27 21 21 16 17 16 17 21 18 17 16 16 16 18 18 25 37 30 26 32 29 28 31 32 42 38 41 37 38 39 42 45 48 49 49 49 50 51 52